Flag for United Arab Emirates Weather past 2 weeks in Abu Dhabi, Abu Dhabi, United Arab Emirates

Now
90 °F

Haze.


Feels Like: 119 °F
Forecast: 92 / 106 °F
Wind: 6 mph from North

Location: Abu Dhabi Bateen Airport

Current Time: Aug 28, 2015 at 4:25:53 AM

Latest Report: Aug 28, 2015 at 4:00 AM


Visibility: 2 mi

Pressure: 29.53 "Hg

Humidity: 89%

Dew point: 86 °F

Historic Weather in Abu Dhabi — Graph

°F

Abu Dhabi temperature yesterday

Maximum temperature yesterday: 109 °F (at 1:00 PM)
Minimum temperature yesterday: 88 °F (at 5:00 AM)
Average temperature yesterday: 97 °F

Past Weeks' High & Low Weather Summary

 TemperatureHumidityPressure
High115 °F (Aug 24, 3:00 PM)84% (Aug 15, 3:00 AM)29.68 "Hg (Aug 15, 3:00 AM)
Low88 °F (Aug 15, 7:00 AM)11% (Aug 25, 3:00 PM)29.47 "Hg (Aug 14, 5:00 PM)
Average99 °F40%29.55 "Hg
* Reported Aug 13 3:00 AM — Aug 28 3:00 AM, Abu Dhabi, Weather by CustomWeather, © 2015

Note: Actual official high and low records may vary slightly from our data, if they occured in-between our weather recording intervals... More about our weather records

Advertising

Abu Dhabi weather history for previous 24 hours

 ConditionsComfort  
Time TempWeatherWind HumidityBarometerVisibility
3:00 AM
Fri, Aug 28
90 °FHaze.5 mph84%29.53 "Hg3 mi
2:00 AM90 °FHaze.3 mph84%29.53 "Hg3 mi
1:00 AM90 °FClear.5 mph84%29.53 "Hg4 mi
12:00 AM91 °FClear.2 mph80%29.56 "Hg4 mi
11:00 PM
Thu, Aug 27
91 °FClear.3 mph80%29.56 "Hg4 mi
10:00 PM91 °FClear.3 mph80%29.56 "Hg4 mi
9:00 PM93 °FClear.6 mph75%29.53 "Hg4 mi
8:00 PM93 °FClear.6 mph19%29.53 "Hg5 mi
7:00 PM95 °FClear.12 mph63%29.53 "Hg5 mi
6:00 PM99 °FClear.13 mph47%29.53 "Hg5 mi
5:00 PM100 °FSunny.12 mph40%29.53 "Hg10 mi
4:00 PM102 °FPassing clouds.9 mph37%29.53 "HgN/A
3:00 PM104 °FPassing clouds.10 mph29%29.53 "HgN/A
2:00 PM106 °FPassing clouds.13 mph26%29.56 "HgN/A
1:00 PM109 °FPassing clouds.9 mph16%29.56 "HgN/A
12:00 PM108 °FPassing clouds.6 mph19%29.59 "HgN/A
11:00 AM104 °FPassing clouds.6 mph20%29.62 "HgN/A
10:00 AM102 °FPassing clouds.5 mph24%29.62 "HgN/A
9:00 AM99 °FPassing clouds.3 mph35%29.59 "HgN/A
8:00 AM93 °FSunny.3 mph56%29.59 "Hg10 mi
7:00 AM90 °FClear.2 mph67%29.59 "Hg6 mi
6:00 AM88 °FClear.2 mph70%29.56 "Hg5 mi
5:00 AM88 °FClear.No wind62%29.53 "Hg6 mi
4:00 AM90 °FClear.No wind63%29.53 "Hg10 mi
Weather by CustomWeather, © 2015

See weather overviewHow to use our weather pages